Weather in Mikhaylovka

Russia / Chuvash Republic     55°49′26″N   47°22′51″E
temp.,
°C
wind,
m/s
gust,
m/s
humid.,
%
clouds,
%
prec.,
mm/h
press.,
hPa
HPBL,
m
15 april, thu
thu1500:00+10sse33870 0.0 102240
03:00+9sse22860 0.0 102118
06:00+9sse338714 0.0 102140
09:00+15s356710 0.0 1020348
12:00+18ssw23432 0.0 10191520
15:00+19w123782 0.0 10182041
18:00+17nne225383 0.0 101834
21:00+14nne335634 0.0 101923
16 april, fri
fri1600:00+10nne6119431 0.0 1020252
03:00+9ne71191100 0.0 1021397
06:00+8ne61190100 0.0 1023513
09:00+9ene7108281 0.0 1024583
12:00+11ene797090 0.0 1024758
15:00+13ene686395 0.0 1024970
18:00+11ene596580 0.0 1025474
21:00+8ne5127322 0.0 1026342
17 april, sat
sat1700:00+5ene511705 0.0 1026277
03:00+4ne511735 0.0 1027250
06:00+3ene5116943 0.0 1028302
09:00+8ene695128 0.0 1028584
12:00+11ene67353 0.0 10271073
15:00+12ene67345 0.0 10261281
18:00+10ene47490 0.0 1026169
21:00+6ne49650 0.0 1026162
18 april, sun
sun1800:00+4ene410710 0.0 1026192
03:00+3ene35780 0.0 102679
06:00+3ne38780 0.0 1026184
09:00+8ene575631 0.0 1025670
12:00+11ne674392 0.0 10241341
15:00+11ne6742100 0.0 10241616
18:00+8ene81265100 0.0 1026736
21:00+5ene61269100 0.0 1027684
19 april, mon
mon1900:00+4ene71260100 0.0 1028677
03:00+1ene71258100 0.0 1029499
06:000ene713662 0.0 1030606
09:00+4e811420 0.0 10311187
12:00+6e810330 0.0 10321668
15:00+7e810304 0.0 10311760
18:00+5ene610380 0.0 1032789
21:00+1ene411490 0.0 1034274